{"data":{"norad_id":53854,"epoch":"2026-09-20T05:56:43.761408Z","epoch_age_seconds":106145,"freshness":"FRESH","line1":"1 53854U 22114AN  26263.24772872  .00001030  00000+0  44955-4 0  9997","line2":"2 53854  53.1602 120.2370 0001252 109.4904 250.6233 15.31704661222625","mean_motion":15.31704661,"eccentricity":0.0001252,"inclination_deg":53.1602,"raan_deg":120.237,"arg_perigee_deg":109.4904,"mean_anomaly_deg":250.6233,"bstar":4.4955e-5,"rev_number":22262,"period_min":94.012901877564,"perigee_km":469.86862340217,"apogee_km":471.58357872267,"semimajor_km":6848.8631010624,"source":"CELESTRAK","updated_at":"2026-09-21T09:00:33.023890Z"}}